Terug naar catalogus

STARLINK-30303

ActiefCommunicatieVLEO
NORAD 57677·PAYLOAD·🇺🇸 United States

Gelanceerd Aug 22, 2023 vanaf Vandenberg Space Force Base

Loading…

Volgende Passages (komende 24 uur)

TLE

VersSource: CelesTrak SupGP

Epoch: Sep 15, 2026, 02:01 UTC

1 57677C 23124Q   26258.08451389 -.00020923  00000+0 -61832-3 0  2583
2 57677  53.1593  44.7791 0001255  88.1688  61.6354 15.34392915    12

Volg STARLINK-30303 in realtime met AllMySat

Download on the App Store